Regional Weather Roundup
Issued by NWS

Home | Current Version | Previous Version | Graphics & Text | Print | Product List | Glossary On
Versions: 1 2 3 4 5 6 7 8 9 10 11 12 13 14 15 16 17 18 19 20 21 22 23 24 25 26 27 28 29 30 31 32 33 34 35 36 37 38 39 40 41 42 43 44 45 46 47 48 49 50
000
ASUS43 KMPX 240310
RWRMN
WEATHER ROUNDUP FOR MINNESOTA
NATIONAL WEATHER SERVICE TWIN CITIES/CHANHASSEN MN
1000 PM CDT THU MAR 23 2017


NOTE: "FAIR" INDICATES FEW OR NO CLOUDS BELOW 12,000 FEET WITH NO
SIGNIFICANT WEATHER AND/OR OBSTRUCTIONS TO VISIBILITY. N/A MEANS
CURRENT SKY AND/OR WEATHER CONDITIONS ARE NOT AVAILABLE.

MNZ060>063-068>070-240400-
   Twin Cities Metro

CITY           SKY/WX    TMP DP  RH WIND       PRES   REMARKS
TWIN CITIES    RAIN      39  35  86 SE8       29.84R FOG
ST PAUL        LGT RAIN  39  37  92 E6        29.87R FOG
CRYSTAL        CLOUDY    38  34  85 E5        29.84R
BLAINE         DRIZZLE   39  39 100 NE5       29.85R
LAKEVILLE      DRIZZLE   37  37 100 E3        29.82S
EDEN PRAIRIE   LGT RAIN  40  36  86 E6        29.83R FOG
SOUTH ST PAUL  DRIZZLE   39  36  88 CALM      29.84R
LAKE ELMO      DRIZZLE   37  36  93 E3        29.86R
$$
MNZ001>005-007-008-013>017-022>024-027-028-240400-
   Northwest Minnesota

CITY           SKY/WX    TMP DP  RH WIND       PRES   REMARKS
BEMIDJI        CLOUDY    32  32 100 CALM      29.86R FOG
HALLOCK        CLOUDY    34  32  93 CALM      29.87R FOG
ROSEAU         CLOUDY    36  30  80 CALM      29.87R
WARROAD        CLOUDY    36  30  80 SW3       29.87R
THIEF RVR FALL CLOUDY   N/A N/A N/A SW6       29.88R
CROOKSTON      MIX PCPN  34  34 100 W3        29.89R
FOSSTON        CLOUDY    32  30  93 CALM      29.87R FOG
DETROIT LAKES  CLOUDY    34  32  93 CALM      29.85S FOG
MOORHEAD       CLOUDY    34  34 100 CALM      29.87R FOG
PARK RAPIDS    LGT RAIN  34  31  88 CALM      29.83S
MAHNOMEN       CLOUDY    33  32  96 CALM      29.85S
$$
MNZ006-009>011-018-025>026-240400-
   North Central Minnesota

CITY           SKY/WX    TMP DP  RH WIND       PRES   REMARKS
BAUDETTE       CLOUDY    34  32  92 CALM      29.85R
FLAG ISLAND    CLOUDY    36  30  80 SW5       29.86R
INTL FALLS     CLOUDY    33  31  92 CALM      29.86R
WASKISH        CLOUDY    34  34 100 CALM      29.87R
BIG FORK       MIX PCPN  34  32  93 CALM      29.86S
LONGVILLE      MIX PCPN  32  32 100 SE3       29.85S
GRAND RAPIDS   LGT RAIN N/A N/A N/A S8        29.88R
CRANE LAKE     CLOUDY    32  30  93 CALM      29.89S FOG
ORR            LGT RAIN  32  30  93 CALM      29.85R
COOK           MIX PCPN  34  30  86 SW5       29.88R WCI  30
WALKER         DRIZZLE   32  32  99 CALM      29.85R
$$
MNZ012-019>021-037-240400-
   Northeast Minnesota

CITY           SKY/WX    TMP DP  RH WIND       PRES   REMARKS
DULUTH         FRZ RAIN  32  31  96 SE6       29.87S FOG     WCI  26
ELY            MIX PCPN  32  32 100 SW3       29.85S
HIBBING        FRZ RAIN  31  31 100 VRB3      29.86S FOG
EVELETH        MIX PCPN  32  31  96 S5        29.87S WCI  28
DULUTH HARBOR  MIX PCPN  34  32  93 CALM      29.91F
TWO HARBORS    DRIZZLE   36  30  80 CALM      29.87F
SILVER BAY     RAIN      34  32  93 CALM      29.89R
GRAND MARAIS     N/A     33  32  96 CALM      29.92F
G MARAIS ARPRT LGT SNOW  28  27  93 S6        29.87F WCI  22
$$
MNZ029>031-032-039>041-046>048-054>057-064-240400-
   West Central Minnesota

CITY           SKY/WX    TMP DP  RH WIND       PRES   REMARKS
FERGUS FALLS   CLOUDY    34  34 100 CALM      29.87R FOG
WHEATON        CLOUDY    36  34  93 CALM      29.84R FOG
MORRIS         MOCLDY    36  34  93 E8        29.81R FOG
ALEXANDRIA     CLOUDY    34  33  96 E8        29.82R FOG     WCI  27
ELBOW LAKE     CLOUDY    34  34 100 CALM      29.84R FOG
WADENA         DRIZZLE   32  32 100 E3        29.83S
GLENWOOD       MIX PCPN  34  34 100 E7        29.82S WCI  28
APPLETON       DRIZZLE   36  36 100 CALM      29.81S
BENSON         DRIZZLE   37  34  87 E6        29.84R
ORTONVILLE     CLOUDY    36  34  93 E6        29.81R FOG
MADISON        DRIZZLE   37  37 100 E6        29.80S
WILLMAR        DRIZZLE   37  37 100 E9        29.82R
$$
MNZ033>034-036-042>043-049>051-058-059-240400-
   Central Minnesota

CITY           SKY/WX    TMP DP  RH WIND       PRES   REMARKS
ST CLOUD       MIX PCPN  35  35 100 NE3       29.84S FOG
SAUK CENTRE    LGT RAIN  33  33 100 E6        29.83R WCI  27
PAYNESVILLE    DRIZZLE   35  35 100 E5        29.84R WCI  30
AITKIN         CLOUDY    36  30  80 CALM      29.85R
PINE RIVER     DRIZZLE   34  34 100 CALM      29.89R
BRAINERD       CLOUDY    33  32  96 E5        29.84F FOG     WCI  29
STAPLES        CLOUDY    32  32 100 E3        29.84R FOG
LONG PRAIRIE   CLOUDY    32  32 100 NE5       29.83S FOG     WCI  27
LITTLE FALLS   CLOUDY    34  32  93 CALM      29.85S FOG
LITCHFIELD     DRIZZLE   37  36  93 E7        29.82R
BUFFALO        DRIZZLE   36  34  95 NE5       29.85R
MAPLE LAKE     DRIZZLE   37  36  98 E6        29.85R
HUTCHINSON     DRIZZLE   37  37  99 E6        29.82S
$$
MNZ037-044-045-052-053-240400-
   East Central Minnesota

CITY           SKY/WX    TMP DP  RH WIND       PRES   REMARKS
PRINCETON      DRIZZLE   37  36  93 NE3       29.85S
MORA           DRIZZLE   32  32 100 CALM      29.87F
CAMBRIDGE      DRIZZLE   37  30  75 CALM      29.84S
RUSH CITY      CLOUDY    34  33  95 NE5       29.86F FOG     WCI  30
MOOSE LAKE     CLOUDY    32  32 100 CALM      29.85F FOG
HINCKLEY       CLOUDY    34  34 100 CALM      29.88S FOG
CLOQUET        MIX PCPN  32  30  93 SE3       29.87R
MCGREGOR       CLOUDY    32  32 100 CALM      29.87R
$$
MNZ071>073-080-081-089-090-097-098-240400-
   Southwest Minnesota

CITY           SKY/WX    TMP DP  RH WIND       PRES   REMARKS
MONTEVIDEO     DRIZZLE   36  36 100 CALM      29.83R
GRANITE FALLS  DRIZZLE   38  37  94 E5        29.81R
CANBY          CLOUDY    37  37  99 CALM      29.80R FOG
MARSHALL       MIX PCPN  37  36  96 E8        29.78R
REDWOOD FALLS  LGT RAIN  38  35  89 E6        29.79R FOG
OLIVIA         DRIZZLE   36  34  93 E9        29.79S
PIPESTONE      CLOUDY    39  36  87 E5        29.74R
WINDOM         MOCLDY    41  36  81 E6        29.75R
WORTHINGTON    CLOUDY    40  36  86 E7        29.74R
JACKSON        CLOUDY    37  34  87 SE12      29.74S
TRACY          RAIN      38  37  94 NE5       29.77R
SLAYTON        CLOUDY    38  36  94 NE5       29.75R
$$
MNZ065>067-074>077-082>085-091>093-240400-
   South Central Minnesota

CITY           SKY/WX    TMP DP  RH WIND       PRES   REMARKS
MANKATO        CLOUDY    40  37  89 SE12      29.80
NEW ULM        DRIZZLE   39  36  87 E6        29.78F
ST JAMES       CLOUDY    39  36  87 E5        29.78R
FAIRMONT       CLOUDY    39  36  89 SE12      29.76F
GLENCOE        DRIZZLE   38  38 100 CALM      29.81S
FARIBAULT      CLOUDY    41  37  87 SE10      29.81R
OWATONNA       CLOUDY    39  36  87 SE14      29.80R
WASECA         CLOUDY    39  36  87 SE13      29.80S
ALBERT LEA     CLOUDY    39  37  93 SE16      29.79R
$$
MNZ078>079-086>088-094>096-240400-
   Southeast Minnesota

CITY           SKY/WX    TMP DP  RH WIND       PRES   REMARKS
ROCHESTER      CLOUDY    36  35  96 SE14      29.83S
RED WING       CLOUDY    41  34  75 SE7       29.83F
STANTON        DRIZZLE   41  36  83 E5        29.81S
DODGE CENTER   CLOUDY    37  36  93 SE14      29.81S
WINONA         CLOUDY    39  34  81 SE9       29.87F
AUSTIN         CLOUDY    39  36  87 E7        29.82F
PRESTON        LGT RAIN  37  34  88 E9        29.84F
$$
ABBREVIATIONS USED IN REMARKS
   TC - TEMPERATURES IN CELSIUS
  WCI - WIND CHILL INDEX
   HX - HEAT INDEX
  VSB - VISIBILITY
$$



USA.gov is the U.S. government's official web portal to all federal, state and local government web resources and services.